FW7474 Weather Reports


Display with metric or nautical units.
time (UTC)temp
F
wind
direction
speed
MPH
gust
MPH
rain 1hr
in
rain 24hr
in
rain mn
in
humidity
%
barometer
mb
20260506050639 51 225 3.0 4.0 0.00 0.17 0.04 98 1008.5
20260506050124 51 197 1.0 5.0 0.00 0.17 0.04 98 1008.7
20260506045121 51 144 2.0 6.0 0.00 0.17 0.04 98 1008.5
20260506044622 51 211 3.0 6.0 0.00 0.17 0.04 99 1008.6
20260506044122 51 213 2.0 4.0 0.00 0.17 0.04 98 1008.5
20260506043622 51 223 1.0 4.0 0.00 0.17 0.04 98 1008.6
20260506043323 51 103 0.0 4.0 0.00 0.17 0.04 98 1008.7
20260506043317 51 212 2.0 4.0 0.00 0.17 0.04 98 1008.8
20260506043253 51 193 2.0 4.0 0.00 0.17 0.04 98 1008.7
20260506042509 51 191 2.0 3.0 0.00 0.17 0.04 99 1008.6
20260506042333 51 184 1.0 4.0 0.00 0.17 0.04 98 1008.9
20260506041941 51 126 1.0 4.0 0.00 0.17 0.04 98 1008.7
20260506041826 51 94 0.0 4.0 0.00 0.17 0.00 98 1008.6
20260506035923 51 194 0.0 4.0 0.00 0.17 0.04 98 1008.9
20260506035122 51 289 0.0 4.0 0.00 0.17 0.04 98 1008.9
20260506034622 51 156 3.0 4.0 0.00 0.17 0.04 98 1009.1
20260506034122 51 233 2.0 6.0 0.00 0.17 0.04 98 1009.1
20260506033622 52 253 2.0 6.0 0.00 0.17 0.04 98 1008.9
20260506033122 52 216 2.0 5.0 0.00 0.17 0.04 98 1009.2
20260506032622 52 195 2.0 4.0 0.00 0.17 0.04 98 1009.0
20260506032507 52 216 0.0 4.0 0.00 0.17 0.04 98 1009.1
20260506031622 52 261 0.0 3.0 0.00 0.17 0.04 98 1008.9
20260506031127 52 211 0.0 3.0 0.00 0.17 0.04 98 1009.0
20260506030622 52 152 0.0 5.0 0.00 0.17 0.04 98 1009.0
20260506030138 52 140 0.0 5.0 0.00 0.17 0.04 98 1009.0
20260506025621 52 215 3.0 3.0 0.00 0.17 0.04 98 1009.2
20260506025135 52 143 0.0 6.0 0.00 0.17 0.04 98 1009.1
20260506025038 52 225 3.0 6.0 0.00 0.17 0.04 98 1009.2
20260506024121 52 119 3.0 4.0 0.00 0.17 0.04 98 1009.0
20260506023622 53 119 1.0 3.0 0.00 0.17 0.04 98 1009.2
20260506023122 53 175 1.0 4.0 0.00 0.17 0.04 98 1009.2
20260506022624 53 230 2.0 6.0 0.00 0.17 0.04 98 1009.1
20260506022124 53 150 2.0 6.0 0.00 0.17 0.04 98 1009.3
20260506021622 53 209 3.0 4.0 0.00 0.17 0.04 98 1009.4
20260506021122 53 173 0.0 5.0 0.00 0.17 0.04 98 1009.3
20260506021014 53 110 1.0 5.0 0.00 0.17 0.04 98 1009.2
20260506020122 53 220 3.0 4.0 0.00 0.17 0.04 98 1009.2
20260506015621 53 123 0.0 3.0 0.00 0.17 0.04 98 1009.0
20260506015124 53 184 1.0 3.0 0.00 0.17 0.04 98 1009.0
20260506014621 53 231 1.0 4.0 0.00 0.17 0.04 98 1008.9
20260506014122 53 238 0.0 4.0 0.00 0.17 0.04 98 1009.2
20260506013624 53 182 0.0 4.0 0.00 0.17 0.04 98 1009.2
20260506013122 53 128 0.0 8.0 0.00 0.17 0.04 98 1009.5
20260506012622 54 148 2.0 8.0 0.00 0.17 0.04 98 1009.6
20260506012341 54 214 0.0 3.0 0.03 0.17 0.04 98 1009.0
20260506012227 54 128 0.0 3.0 0.01 0.17 0.04 98 1009.4
20260506012124 54 217 0.0 4.0 0.02 0.17 0.04 98 1009.2
20260506012033 54 145 1.0 4.0 0.03 0.17 0.04 98 1009.3
20260506011942 54 231 1.0 2.0 0.03 0.17 0.04 98 1009.3
20260506011829 54 182 0.0 3.0 0.03 0.17 0.00 98 1009.5
20260506005300 54 244 2.0 5.0 0.03 0.17 0.04 98 1009.5
20260506005238 54 103 0.0 5.0 0.03 0.17 0.04 98 1009.5
20260506004154 54 99 1.0 4.0 0.04 0.17 0.04 98 1009.6
20260506003643 54 179 0.0 4.0 0.04 0.17 0.04 98 1009.7
20260506003441 54 140 0.0 10.0 0.04 0.17 0.04 98 1009.6
20260506002622 54 207 1.0 12.0 0.04 0.17 0.04 98 1009.7
20260506002436 54 32 4.0 12.0 0.03 0.16 0.03 98 1009.9
20260506001622 54 29 1.0 11.0 0.02 0.15 0.02 98 1009.9
20260506001118 54 216 2.0 10.0 0.01 0.14 0.01 98 1010.0
20260506000618 54 70 0.0 8.0 0.01 0.14 0.01 98 1009.9
20260506000120 54 261 2.0 3.0 0.01 0.14 0.01 98 1009.8
20260505235621 54 113 1.0 5.0 0.01 0.14 0.01 98 1009.8
20260505235231 54 209 3.0 4.0 0.01 0.14 0.00 98 1010.3
20260505235210 54 224 2.0 5.0 0.01 0.14 0.01 98 1010.0
20260505234123 54 193 0.0 5.0 0.00 0.13 0.00 98 1009.8
20260505233626 54 233 4.0 5.0 0.00 0.13 0.00 98 1010.0
20260505233131 54 248 0.0 5.0 0.00 0.13 0.00 98 1009.8
20260505233027 54 216 0.0 5.0 0.00 0.13 0.00 98 1010.2
20260505232118 54 121 1.0 4.0 0.00 0.13 0.00 98 1010.1
20260505232003 54 216 2.0 4.0 0.00 0.13 0.00 98 1010.2
20260505231121 54 163 0.0 4.0 0.00 0.13 0.00 98 1010.2
20260505231000 53 101 1.0 2.0 0.00 0.13 0.00 98 1010.0
20260505230118 53 145 0.0 2.0 0.00 0.13 0.00 98 1010.1
20260505225617 53 145 0.0 3.0 0.00 0.13 0.00 98 1010.1
20260505225120 53 134 0.0 3.0 0.00 0.13 0.00 98 1010.0
20260505224617 53 197 2.0 2.0 0.00 0.13 0.00 98 1010.1
20260505224118 53 126 0.0 2.0 0.00 0.13 0.00 98 1010.3
20260505223618 54 125 0.0 2.0 0.00 0.13 0.00 98 1010.2
20260505223129 54 211 2.0 2.0 0.00 0.13 0.00 98 1010.0
20260505222934 54 141 0.0 1.0 0.00 0.13 0.00 98 1010.3
20260505222925 54 145 0.0 4.0 0.00 0.13 0.00 98 1010.3
20260505222755 54 199 0.0 2.0 0.00 0.13 0.00 98 1010.3
20260505222621 54 139 0.0 2.0 0.00 0.13 0.00 98 1010.1
20260505222149 54 150 0.0 1.0 0.00 0.13 0.00 98 1010.1
20260505222058 54 135 0.0 4.0 0.00 0.13 0.00 98 1010.3
20260505215615 54 122 0.0 2.0 0.00 0.13 0.13 98 1010.4
20260505215116 54 124 0.0 3.0 0.00 0.13 0.13 98 1010.4
20260505214615 54 156 0.0 3.0 0.00 0.13 0.13 98 1010.5
20260505214118 54 219 1.0 4.0 0.00 0.13 0.13 98 1010.4
20260505213625 54 210 2.0 4.0 0.00 0.13 0.13 98 1010.3
20260505213116 54 280 1.0 3.0 0.00 0.13 0.13 98 1010.1
20260505212956 54 170 0.0 2.0 0.00 0.13 0.13 97 1010.3
20260505212951 54 106 2.0 4.0 0.00 0.13 0.13 97 1010.4
20260505212827 54 166 0.0 3.0 0.00 0.13 0.13 98 1010.1
20260505211127 54 127 0.0 4.0 0.00 0.13 0.13 97 1010.3
20260505210659 54 213 4.0 4.0 0.00 0.13 0.13 97 1010.1
20260505210246 54 45 0.0 2.0 0.00 0.13 0.13 97 1010.3
20260505205138 54 232 0.0 2.0 0.00 0.13 0.13 97 1010.3
20260505204916 54 266 2.0 2.0 0.00 0.13 0.13 97 1010.4
20260505204140 54 222 2.0 3.0 0.00 0.13 0.13 97 1010.2
20260505203638 55 271 0.0 3.0 0.00 0.13 0.13 97 1010.4
20260505203130 55 246 0.0 3.0 0.00 0.13 0.13 97 1010.2
20260505202621 55 103 0.0 2.0 0.00 0.13 0.13 97 1010.2
20260505202146 55 191 0.0 3.0 0.00 0.13 0.13 97 1010.1
20260505201624 55 65 0.0 3.0 0.00 0.13 0.13 97 1010.2
20260505201120 55 130 0.0 3.0 0.00 0.13 0.13 96 1010.1
20260505200621 55 220 0.0 2.0 0.00 0.13 0.13 96 1010.1
20260505200124 55 222 0.0 2.0 0.00 0.13 0.13 96 1010.0
20260505195616 55 188 0.0 2.0 0.01 0.13 0.11 96 1009.9
20260505195123 55 115 0.0 2.0 0.01 0.13 0.11 96 1010.1
20260505194616 55 10 2.0 3.0 0.01 0.13 0.11 96 1010.1
20260505194414 55 207 2.0 5.0 0.01 0.13 0.11 96 1010.1
20260505193616 55 191 0.0 5.0 0.01 0.13 0.11 96 1010.2
20260505193116 55 201 1.0 4.0 0.01 0.13 0.11 96 1010.1
20260505192625 55 167 1.0 3.0 0.01 0.13 0.11 96 1009.9
20260505192249 55 179 0.0 3.0 0.01 0.13 0.11 96 1009.9
20260505192031 56 179 0.0 3.0 0.01 0.13 0.11 95 1009.9
20260505191940 56 166 0.0 3.0 0.02 0.13 0.11 95 1009.9
20260505191847 56 214 0.0 2.0 0.02 0.13 0.11 95 1009.8
20260505191733 56 299 0.0 2.0 0.02 0.13 0.00 95 1009.9
20260505185607 56 141 0.0 4.0 0.01 0.12 0.12 95 1009.7
20260505185115 56 99 2.0 4.0 0.01 0.12 0.12 95 1009.9
20260505184606 56 139 0.0 2.0 0.01 0.12 0.12 95 1009.9
20260505184110 56 134 0.0 2.0 0.01 0.12 0.12 95 1009.9
20260505183612 56 145 0.0 2.0 0.01 0.12 0.12 95 1009.6
20260505183107 56 103 0.0 4.0 0.02 0.12 0.12 95 1009.8
20260505182607 56 101 1.0 4.0 0.02 0.12 0.12 95 1009.8
20260505182110 57 106 1.0 5.0 0.02 0.12 0.12 95 1009.9
20260505181606 57 83 0.0 5.0 0.02 0.12 0.12 95 1010.0
20260505181117 57 106 1.0 3.0 0.01 0.11 0.11 95 1010.0
20260505180607 57 50 0.0 2.0 0.01 0.11 0.11 95 1010.0
20260505180119 57 66 0.0 2.0 0.02 0.11 0.11 94 1009.9
20260505175806 57 122 0.0 2.0 0.02 0.11 0.11 94 1009.7
20260505175729 57 45 0.0 2.0 0.02 0.11 0.11 94 1009.7
20260505174607 57 134 0.0 2.0 0.02 0.11 0.11 93 1009.8
20260505174107 57 176 0.0 2.0 0.02 0.11 0.11 93 1010.1
20260505173607 57 122 0.0 2.0 0.02 0.11 0.11 93 1010.0
20260505173106 58 125 1.0 3.0 0.01 0.10 0.10 93 1010.0
20260505172607 58 101 2.0 3.0 0.01 0.10 0.10 93 1010.0
20260505172107 58 102 1.0 3.0 0.01 0.10 0.10 94 1010.1
20260505171618 58 86 1.0 3.0 0.01 0.10 0.10 93 1010.1
20260505171111 58 168 1.0 3.0 0.01 0.10 0.10 93 1010.2
20260505170607 58 113 2.0 3.0 0.01 0.10 0.10 93 1009.9
20260505170519 58 86 2.0 3.0 0.00 0.09 0.09 93 1010.0
20260505165948 58 69 2.0 3.0 0.00 0.09 0.09 93 1010.1
20260505165121 58 102 1.0 2.0 0.00 0.09 0.09 92 1010.1
20260505164700 58 57 2.0 2.0 0.00 0.09 0.09 92 1009.9
20260505163607 58 85 0.0 3.0 0.00 0.09 0.09 92 1010.0
20260505163217 58 90 1.0 2.0 0.00 0.09 0.09 91 1010.3
20260505163212 58 108 2.0 3.0 0.00 0.09 0.09 91 1010.2
20260505163154 58 96 0.0 3.0 0.00 0.09 0.09 92 1010.4
20260505162823 58 95 2.0 3.0 0.00 0.09 0.09 92 1010.3
20260505162700 58 115 0.0 3.0 0.00 0.09 0.09 91 1010.2
20260505162254 58 155 2.0 3.0 0.00 0.09 0.09 91 1010.2
20260505161825 58 97 2.0 2.0 0.00 0.09 0.00 91 1010.1
20260505153109 58 352 1.0 6.0 0.01 0.09 0.09 88 1010.3
20260505152611 59 22 3.0 6.0 0.01 0.09 0.09 89 1010.4
20260505152107 59 17 3.0 4.0 0.02 0.09 0.09 90 1010.5
20260505151606 59 306 3.0 4.0 0.02 0.09 0.09 90 1010.5
20260505151452 59 5 2.0 4.0 0.02 0.09 0.09 90 1010.8
20260505150606 59 22 0.0 2.0 0.02 0.09 0.09 90 1010.4
20260505150143 59 10 1.0 2.0 0.02 0.09 0.09 90 1010.8
20260505124616 59 209 1.0 3.0 0.04 0.04 0.04 88 1011.5
20260505124102 59 134 0.0 5.0 0.04 0.04 0.04 87 1011.5
20260505123602 59 219 2.0 5.0 0.03 0.03 0.03 88 1011.6
20260505123105 59 182 0.0 5.0 0.03 0.03 0.03 87 1011.8
20260505122602 59 149 2.0 4.0 0.03 0.03 0.03 88 1011.4
20260505122102 59 197 2.0 7.0 0.03 0.03 0.03 87 1011.5
20260505121610 59 170 1.0 7.0 0.02 0.02 0.02 87 1011.7
20260505121102 59 219 0.0 5.0 0.02 0.02 0.02 88 1011.6
20260505120604 59 346 0.0 5.0 0.02 0.02 0.02 88 1011.5
20260505120404 59 229 1.0 5.0 0.01 0.01 0.01 87 1011.6
20260505115603 59 157 1.0 4.0 0.01 0.01 0.01 86 1011.6
20260505115103 59 301 1.0 4.0 0.01 0.01 0.01 86 1011.5
20260505114900 59 107 0.0 4.0 0.00 0.00 0.00 85 1011.4
20260505114102 59 224 0.0 4.0 0.00 0.00 0.00 85 1011.8
20260505113618 59 174 0.0 3.0 0.00 0.00 0.00 85 1011.6
20260505113228 59 178 1.0 5.0 0.00 0.00 0.00 84 1011.8
20260505112113 59 236 3.0 5.0 0.00 0.00 0.00 85 1011.6
20260505111608 59 233 3.0 5.0 0.00 0.00 0.00 85 1011.6
20260505111104 59 216 2.0 5.0 0.00 0.00 0.00 86 1011.6
20260505111000 59 247 0.0 4.0 0.00 0.00 0.00 86 1011.7
20260505110524 59 111 0.0 4.0 0.00 0.00 0.00 86 1011.8
20260505102158 59 178 2.0 3.0 0.00 0.00 0.00 83 1012.1
20260505102109 58 66 0.0 3.0 0.00 0.00 0.00 84 1011.9
20260505101932 58 100 0.0 3.0 0.00 0.00 0.00 84 1012.4
20260505095056 58 83 2.0 4.0 0.00 0.00 0.00 84 1012.1
20260505094553 58 107 1.0 4.0 0.00 0.00 0.00 85 1012.3
20260505094053 58 273 0.0 6.0 0.00 0.00 0.00 85 1012.2
20260505093554 58 152 2.0 9.0 0.00 0.00 0.00 85 1012.2
20260505093054 58 274 1.0 9.0 0.00 0.00 0.00 85 1012.2
20260505092553 58 17 1.0 9.0 0.00 0.00 0.00 86 1012.3
20260505092053 58 73 2.0 5.0 0.00 0.00 0.00 87 1012.3
20260505091555 57 184 1.0 5.0 0.00 0.00 0.00 87 1012.2
20260505091059 57 298 1.0 5.0 0.00 0.00 0.00 88 1012.3
20260505090556 57 71 1.0 3.0 0.00 0.00 0.00 89 1012.4
20260505085553 56 216 2.0 2.0 0.00 0.00 0.00 89 1012.4
20260505085103 56 166 0.0 2.0 0.00 0.00 0.00 89 1012.4
20260505084553 56 134 0.0 1.0 0.00 0.00 0.00 89 1012.6
20260505084052 57 314 0.0 2.0 0.00 0.00 0.00 89 1012.5
20260505083552 57 145 0.0 2.0 0.00 0.00 0.00 87 1012.6
20260505083053 57 117 0.0 4.0 0.00 0.00 0.00 86 1012.6
20260505082559 57 199 2.0 6.0 0.00 0.00 0.00 84 1012.7
20260505082053 58 237 4.0 6.0 0.00 0.00 0.00 83 1012.5
20260505081553 58 227 2.0 7.0 0.00 0.00 0.00 83 1012.6
20260505081053 58 204 2.0 7.0 0.00 0.00 0.00 83 1012.3
20260505080602 58 247 0.0 2.0 0.00 0.00 0.00 84 1012.4
20260505075626 58 159 0.0 2.0 0.00 0.00 0.00 83 1012.4
20260505075456 58 181 1.0 3.0 0.00 0.00 0.00 83 1012.5
20260505074618 58 68 0.0 3.0 0.00 0.00 0.00 83 1012.5
20260505074114 58 111 0.0 2.0 0.00 0.00 0.00 84 1012.5
20260505073609 58 359 0.0 2.0 0.00 0.00 0.00 84 1012.4
20260505073108 58 39 0.0 2.0 0.00 0.00 0.00 84 1012.4
20260505072656 57 4 0.0 3.0 0.00 0.00 0.00 85 1012.8
20260505072627 57 29 0.0 2.0 0.00 0.00 0.00 85 1012.7
20260505072452 57 66 0.0 3.0 0.00 0.00 0.00 85 1012.6
20260505071948 57 55 1.0 2.0 0.00 0.00 0.00 85 1012.4
20260505071854 57 45 0.0 2.0 0.00 0.00 0.00 86 1012.8
20260505071810 56 106 1.0 2.0 0.00 0.00 0.00 86 1012.9
20260505065555 56 132 0.0 2.0 0.00 0.00 0.00 87 1013.0
20260505065248 56 156 0.0 2.0 0.00 0.00 0.00 87 1012.9
20260505065200 56 40 0.0 2.0 0.00 0.00 0.00 87 1013.0
20260505064053 56 155 1.0 2.0 0.00 0.00 0.00 87 1012.7
20260505063556 56 142 0.0 2.0 0.00 0.00 0.00 86 1012.7
20260505063053 56 89 1.0 2.0 0.00 0.00 0.00 86 1012.9
20260505062553 56 152 2.0 2.0 0.00 0.00 0.00 86 1012.9
20260505062056 56 72 1.0 2.0 0.00 0.00 0.00 86 1012.7
20260505061553 56 106 1.0 2.0 0.00 0.00 0.00 86 1012.7
20260505061410 56 131 1.0 2.0 0.00 0.00 0.00 86 1012.8
20260505060553 56 138 2.0 2.0 0.00 0.00 0.00 86 1012.9
20260505060053 56 103 0.0 2.0 0.00 0.00 0.00 86 1012.9
20260505055553 56 230 0.0 2.0 0.00 0.00 0.00 86 1012.8
20260505055053 56 123 1.0 2.0 0.00 0.00 0.00 86 1012.9
20260505054553 56 86 1.0 2.0 0.00 0.00 0.00 86 1012.9